This demonstration page uses our WeatherBlox Daily Observations layout. Learn more.

Left ArrowRight Arrow

Hourly Observations for June 9, 2015

Temp ( °F °C ) Dew Point ( °F °C ) Humidity (%) Winds ( mph kmh ) Pressure ( in mb ) Visibility ( mi km ) Precip ( " mm )
12:51 am 00:51 Mostly Clear with Light Rain 70 21.1 65 18.3 84 84 E 13 20 29.88 1012 7 11 0.02 0.51
1:51 am 01:51 Cloudy 72 22.2 65 18.3 79 79 ENE 13 20 29.84 1011 10 16 0.02 0.51
2:51 am 02:51 Mostly Cloudy 72 22.2 63 17.2 73 73 ENE 8 13 29.86 1011 10 16 0.00 0.03
3:42 am 03:42 Cloudy with Rain 68 20 65 18.3 90 90 E 9 15 29.91 1013 6 10 0.03 0.76
3:51 am 03:51 Cloudy with Light Rain 68 20 65 18.3 90 90 SE 8 13 29.89 1012 6 10 0.04 1.02
4:51 am 04:51 Mostly Clear 68 20 65 18.3 90 90 ENE 6 9 29.85 1011 10 16 0.01 0.25
5:51 am 05:51 Sunny 69 20.6 65 18.3 87 87 SSE 9 15 29.87 1012 10 16 0.00 0.00
6:51 am 06:51 Mostly Cloudy 70 21.1 66 18.9 87 87 ESE 7 11 29.86 1011 10 16 0.00 0.00
7:51 am 07:51 Partly Cloudy 73 22.8 65 18.3 76 76 SE 10 17 29.87 1011 10 16 0.00 0.00
8:51 am 08:51 Mostly Cloudy 73 22.8 64 17.8 74 74 SE 7 11 29.87 1012 10 16 0.00 0.00
9:51 am 09:51 Partly Cloudy 74 23.3 64 17.8 71 71 SE 8 13 29.87 1011 10 16 0.00 0.03
10:51 am 10:51 Partly Cloudy 77 25 64 17.8 64 64 ESE 6 9 29.86 1011 10 16 0.00 0.00
11:51 am 11:51 Sunny 80 26.7 64 17.8 58 58 S 5 7 29.83 1010 10 16 0.00 0.00
12:51 pm 12:51 Sunny 87 30.6 63 17.2 45 45 E 8 13 29.80 1009 10 16 0.00 0.00
1:51 pm 13:51 Sunny 91 32.8 60 15.6 35 35 SE 9 15 29.73 1007 10 16 0.00 0.00
2:40 pm 14:40 Mostly Cloudy with Nearby Thunderstorms 87 30.6 60 15.6 40 40 SSW 29 46 29.68 1005 10 16 0.00 0.03
2:51 pm 14:51 Mostly Cloudy with Nearby Thunderstorms 76 24.4 63 17.2 64 64 S 25 41 29.79 1009 10 16 0.00 0.03
2:58 pm 14:58 Cloudy with Nearby Thunderstorms 72 22.2 66 18.9 82 82 SSE 16 26 29.80 1009 8 13 0.00 0.03
3:04 pm 15:04 Cloudy with Nearby Thunderstorms 70 21.1 67 19.4 90 90 ESE 13 20 29.80 1009 2 3 0.04 1.02
3:14 pm 15:14 Cloudy with Light Rain 71 21.7 67 19.4 87 87 NE 16 26 29.77 1008 3 5 0.10 2.54
3:29 pm 15:29 Cloudy with Light Rain 71 21.7 66 18.9 84 84 NE 13 20 29.74 1007 10 16 0.10 2.54
3:51 pm 15:51 Partly Cloudy with Light Rain 72 22.2 66 18.9 82 82 ENE 12 19 29.76 1008 10 16 0.11 2.79
4:51 pm 16:51 Sunny 77 25 65 18.3 66 66 ESE 3 6 29.72 1007 10 16 0.00 0.03
5:51 pm 17:51 Mostly Sunny 78 25.6 63 17.2 60 60 SSW 5 7 29.71 1006 10 16 0.00 0.00
6:51 pm 18:51 Sunny 77 25 64 17.8 64 64 SW 7 11 29.73 1007 10 16 0.00 0.00
7:51 pm 19:51 Mostly Cloudy 76 24.4 68 20 77 77 Calm 29.74 1007 10 16 0.00 0.00
8:51 pm 20:51 Mostly Cloudy 75 23.9 69 20.6 82 82 Calm 29.77 1008 10 16 0.00 0.00
9:51 pm 21:51 Clear 73 22.8 69 20.6 87 87 Calm 29.78 1008 10 16 0.00 0.00
10:51 pm 22:51 Clear 72 22.2 67 19.4 84 84 W 6 9 29.78 1009 10 16 0.00 0.00
11:51 pm 23:51 Clear 71 21.7 67 19.4 87 87 ENE 6 9 29.77 1008 10 16 0.00 0.00

Powered by AerisWeather